Location: Moy Burn
(57.3833°N, 4.0667°W)
Time: 11:49:34
(UTC+00:00)

SPOT 5 - Pass Details

Date: 08 August 2020
Orbit: 624 x 814 km, 98.3° (Epoch: 22 September)

Event Time Altitude Azimuth Distance (km) Brightness Sun altitude
Exits shadow 22:15:06 11° 188° (S) 1,940 4.6 -12.2°
Maximum altitude 22:19:06 44° 261° (W) 872 3.5 -12.5°
Drops below altitude 10° 22:23:19 10° 334° (NNW) 2,037 6.7 -12.8°
Sets 22:25:39 0° 341° (NNW) 2,969 7.9 -13.0°
